Regional Weather Roundup
Issued by NWS

Home | Current Version | Previous Version | Text Only | Print | Product List | Glossary Off
Versions: 1 2 3 4 5 6 7 8 9 10 11 12 13 14 15 16 17 18 19 20 21 22 23 24 25 26 27 28 29 30 31 32 33 34 35 36 37 38 39 40 41 42 43 44 45 46 47 48 49 50

507
ASUS43 KFSD 291610
RWRSD

WEATHER ROUNDUP FOR SOUTH DAKOTA
NATIONAL WEATHER SERVICE SIOUX FALLS SD
1100 AM CDT SUN MAY 29 2016

NOTE: "FAIR" INDICATES FEW OR NO CLOUDS BELOW 12,000 FEET WITH NO
SIGNIFICANT WEATHER AND/OR OBSTRUCTIONS TO VISIBILITY.


SDZ001>005-009-010-012>017-291700-
NORTHWEST AND NORTH CENTRAL SOUTH DAKOTA

CITY           SKY/WX    TMP DP  RH WIND       PRES   REMARKS
BUFFALO          N/A     70  46  42 CALM      30.00F
FAITH            N/A     67  53  61 S9        30.07S
MOBRIDGE       SUNNY     69  51  52 NW6       30.03F
$$

SDZ012>016-024>037-041>051-057-063-072>074-291700-
SOUTHWEST AND SOUTH CENTRAL SOUTH DAKOTA

CITY           SKY/WX    TMP DP  RH WIND       PRES   REMARKS
RAPID CTY ARPT PTSUNNY   64  49  57 S6        30.10F
PIERRE         SUNNY     68  54  60 CALM      30.06F
CUSTER         SUNNY     59  43  55 SE10G23   30.17S
ELLSWORTH AFB  CLOUDY    66  49  55 S7        30.09F
PHILIP         PTSUNNY   69  55  60 SE7       30.08S
PINE RIDGE     SUNNY     67  48  50 E5        30.10F
WINNER         FAIR      71  55  56 NE5       30.09F
$$

SDZ004>011-016>023-039-040-291700-
NORTHEAST SOUTH DAKOTA

CITY           SKY/WX    TMP DP  RH WIND       PRES   REMARKS
ABERDEEN       SUNNY     73  52  47 N12       30.01S
WATERTOWN      SUNNY     69  55  60 W13       30.02R
BROOKINGS      SUNNY     68  57  68 W12       30.04R
SISSETON         N/A     71  57  61 NW16      29.97R
$$

SDZ017-020-022-023-036>040-048>070-291700-
SOUTHEAST SOUTH DAKOTA

CITY           SKY/WX    TMP DP  RH WIND       PRES   REMARKS
SIOUX FALLS    MOSUNNY   72  60  66 NW8       30.05R
HURON          SUNNY     71  57  61 NW8       30.04S
CHAMBERLAIN    SUNNY     71  57  62 NW5       30.09S
MITCHELL       SUNNY     71  58  63 NW7       30.07R
YANKTON        SUNNY     70  61  73 W9        30.06R
$$

ABBREVIATIONS USED IN REMARKS
   TC - TEMPERATURE IN CELSIUS
  WCI - WIND CHILL INDEX
   HX - HEAT INDEX
  VSB - VISIBILITY





USA.gov is the U.S. government's official web portal to all federal, state and local government web resources and services.